Wind_Speed
30 28 26 24 21 18 17 20 24 25 25 23 20 21 23 24 25 25 22 21 20 18 18 18 18 17 16 15 14 13 13 13 13 12 12 13 14 15 16 17 16 16 16 17 17 17 18 18 19
31 31 29 27 24 20 20 23 25 25 24 22 21 23 26 25 25 24 23 22 21 19 19 19 18 18 16 15 14 13 13 13 13 12 12 12 13 15 16 17 18 17 17 17 17 17 18 19 20
30 32 32 30 27 24 24 25 25 23 22 21 22 24 27 26 25 24 24 23 22 20 19 19 19 19 17 16 15 14 13 13 13 13 13 13 14 15 16 18 19 19 19 19 19 20 20 20 21
31 32 33 33 29 26 27 27 25 23 21 20 22 25 27 27 25 24 23 23 23 21 20 20 20 19 18 16 15 14 13 13 13 13 14 14 15 16 17 18 20 21 21 22 22 23 23 23 24
32 33 34 33 30 29 29 29 27 24 23 22 23 25 26 27 25 23 22 22 22 21 20 20 20 20 19 17 15 14 14 14 14 14 14 15 16 17 17 18 20 21 22 23 24 25 26 26 26
33 33 34 32 30 31 33 32 29 26 25 25 24 24 25 25 25 23 21 20 21 21 20 20 21 20 20 18 16 15 15 15 15 15 15 16 17 18 19 20 20 21 21 23 24 25 25 26 26
35 34 33 31 32 33 35 34 30 27 27 26 24 23 24 25 25 23 21 20 20 20 20 21 22 21 20 19 17 16 15 15 16 16 17 17 19 19 20 21 22 22 23 23 24 24 25 26 27
35 36 34 32 31 32 35 36 33 30 29 27 25 25 25 25 25 24 21 20 20 20 21 21 22 22 21 20 19 17 16 15 16 16 17 18 19 20 21 21 23 23 25 25 26 26 27 28 28
37 37 33 30 30 30 37 39 37 34 29 27 25 27 28 28 27 25 22 20 20 21 21 22 22 22 23 22 20 18 17 16 16 17 18 19 19 20 21 22 23 24 25 26 26 27 28 29 30
39 37 31 29 30 31 38 41 40 36 30 27 27 28 30 29 27 25 24 22 22 22 22 23 23 23 23 23 21 20 18 17 17 17 18 19 20 21 21 22 23 23 24 25 25 26 28 29 30
40 38 33 32 33 34 39 42 42 38 31 28 29 30 31 28 27 26 26 25 24 24 23 23 24 24 24 24 22 21 20 19 18 18 19 20 21 22 23 24 24 25 25 26 26 27 28 29 30
41 39 37 35 35 38 40 43 43 39 33 30 31 32 31 28 27 27 27 26 26 25 24 24 24 25 25 25 23 22 21 21 20 20 21 22 23 24 25 27 27 27 28 28 28 29 30 31 32
40 39 39 38 38 40 42 44 43 40 36 33 33 34 33 30 29 28 28 28 27 26 25 24 25 25 26 26 25 23 23 23 22 22 23 25 26 27 28 29 30 30 30 31 32 33 34 35 36
39 40 40 40 40 40 43 44 43 38 37 36 35 35 34 32 30 29 29 29 28 26 26 26 25 25 25 26 26 25 25 24 24 24 25 26 28 29 30 31 31 31 32 32 33 34 36 37 38
41 41 41 41 41 42 44 44 41 37 37 38 37 36 36 34 31 29 29 29 28 26 26 26 26 26 25 25 26 26 26 25 25 25 27 28 29 30 31 31 31 32 32 33 33 35 36 38 39
44 45 44 43 44 44 47 45 40 39 38 39 39 38 38 35 32 30 30 30 28 27 26 25 25 25 25 25 26 26 26 26 26 26 27 29 30 30 31 31 31 32 32 33 35 36 38 39 39
46 47 47 46 46 47 49 46 43 42 40 40 40 40 39 36 32 30 30 30 29 27 26 26 25 25 25 25 25 25 26 26 26 27 28 30 31 31 31 31 32 33 34 35 37 39 40 40 41
47 48 49 49 48 50 51 49 46 44 42 41 41 42 41 37 32 31 31 30 29 28 27 26 25 24 24 24 25 25 25 26 27 28 30 31 31 32 33 33 34 35 37 39 40 42 42 43 43
51 52 52 52 52 53 54 52 49 47 46 44 43 43 41 37 33 31 30 30 29 28 27 26 25 24 25 25 25 25 26 27 28 30 31 32 33 34 34 35 37 38 40 42 43 44 45 45 45
53 54 54 54 54 55 56 56 52 49 48 46 44 43 41 38 34 31 30 30 29 28 27 26 25 25 25 25 26 26 27 28 30 31 33 34 34 35 36 38 40 41 43 44 44 45 46 47 47
52 53 53 54 54 56 57 58 56 51 49 48 46 44 42 38 33 31 30 30 29 28 27 27 26 26 26 26 26 27 28 30 32 33 34 35 37 38 40 41 42 43 44 45 45 46 47 48 50
50 49 51 52 53 54 56 60 57 52 50 49 46 43 41 37 33 30 30 30 29 28 27 27 26 26 26 27 27 29 30 32 33 35 36 38 39 40 41 42 43 44 45 46 46 47 49 50 52
45 43 45 47 49 51 52 57 57 53 51 48 44 42 40 36 32 29 30 30 29 27 26 26 26 26 26 27 28 30 32 33 35 37 38 39 40 41 42 43 44 45 46 47 48 50 52 54 56
39 39 41 44 46 51 50 53 57 52 48 44 43 41 38 35 31 30 30 29 28 27 26 25 25 25 26 27 29 31 32 34 36 37 39 40 41 42 43 44 45 46 47 48 50 53 55 58 61
35 36 38 41 45 47 45 51 52 46 45 43 40 38 36 33 30 30 30 29 28 27 26 25 25 25 26 28 29 31 33 35 36 38 39 40 41 42 43 44 46 47 49 51 53 55 58 62 65
30 33 35 37 38 37 42 49 44 39 40 39 38 36 34 32 30 30 30 29 27 26 25 25 25 25 27 28 29 31 33 35 37 38 40 41 42 43 44 46 47 49 51 53 56 59 62 65 67
27 30 31 33 30 32 40 42 38 36 37 36 35 33 31 30 30 30 28 27 26 25 24 24 25 25 27 28 29 31 33 35 37 39 40 41 43 44 46 47 49 50 53 56 59 62 64 66 68
23 26 32 31 25 28 35 37 37 35 34 32 30 29 28 28 29 28 26 25 24 24 24 24 24 25 26 28 30 32 34 36 37 39 41 42 44 45 47 48 50 53 56 59 62 64 65 66 68
22 26 28 25 21 23 29 31 30 28 27 26 26 27 27 26 26 25 24 23 22 22 22 23 24 25 27 29 31 32 34 36 38 40 42 43 45 46 48 50 53 55 59 61 63 64 66 67 69
21 24 25 23 20 21 23 26 28 27 27 28 28 28 27 26 25 24 23 21 21 20 21 22 24 26 27 29 31 33 35 37 39 41 43 44 46 48 50 52 55 58 61 63 64 65 66 69 73
Wind_Direction
244 243 245 247 249 248 242 242 244 246 248 250 252 252 253 251 250 252 254 257 260 263 268 273 277 279 282 282 284 286 286 284 282 282 280 276 270 263 258 257 258 259 260 259 257 254 254 256 259
244 242 242 243 244 244 240 243 247 250 251 250 250 250 254 253 251 250 252 255 257 261 265 270 273 274 277 277 279 282 282 281 279 279 277 273 268 262 257 255 256 257 258 258 256 255 255 258 261
247 242 240 240 241 242 244 247 251 254 253 251 249 249 252 253 251 249 250 254 258 260 264 267 269 269 270 271 274 278 280 280 278 277 275 272 269 264 260 257 256 256 257 257 258 258 259 262 265
249 245 241 240 239 241 244 248 252 254 253 250 248 247 250 252 250 248 248 252 257 260 263 265 264 264 263 264 268 272 276 277 276 275 273 271 270 269 265 261 259 258 258 259 260 262 264 266 268
251 248 244 241 239 240 243 245 248 251 251 246 244 246 250 251 250 247 246 250 257 261 264 264 261 259 256 257 261 265 270 273 275 274 272 270 269 269 269 268 265 264 263 264 265 267 268 270 271
252 250 247 243 239 239 242 244 245 248 250 250 248 248 250 251 249 246 245 250 257 262 264 263 259 255 252 251 255 259 264 269 272 274 273 272 271 270 271 271 272 271 271 270 270 270 271 272 272
253 251 249 243 237 239 243 244 246 249 252 252 252 250 248 248 248 245 245 250 256 261 263 262 257 253 248 247 251 256 262 268 272 274 276 276 275 275 275 275 275 275 275 274 274 273 273 273 273
254 253 250 245 240 239 244 244 243 245 250 251 248 246 244 244 245 244 244 248 255 260 261 260 256 252 246 245 248 252 258 266 272 276 278 279 281 281 280 280 279 278 277 276 275 274 274 274 274
254 254 253 249 243 240 244 244 241 240 244 247 245 244 243 241 240 242 244 248 255 260 262 262 257 251 246 244 246 250 255 264 271 277 281 284 286 286 286 285 284 282 280 278 277 276 276 276 276
254 256 255 250 242 237 243 245 243 240 241 245 245 243 244 243 243 245 247 250 256 261 263 263 259 252 246 243 243 247 253 261 269 276 283 287 290 291 291 291 289 288 287 285 284 282 281 280 280
255 255 253 248 241 236 239 244 244 241 238 241 245 245 246 246 246 248 250 253 257 260 261 261 258 253 249 246 244 247 251 260 268 275 282 287 291 294 295 295 295 294 292 290 289 287 285 284 283
253 252 251 247 242 238 238 242 244 242 238 239 243 245 247 246 246 247 250 253 257 258 258 257 254 252 250 249 249 250 252 259 267 274 281 287 291 294 296 295 294 293 291 290 289 288 288 289 288
251 250 249 246 242 239 238 240 243 242 238 237 241 245 247 245 243 245 248 250 254 258 258 256 252 249 247 248 250 252 256 261 268 275 282 288 291 294 295 294 294 293 291 290 289 289 290 291 291
252 250 249 247 244 241 240 240 243 242 239 236 238 244 248 248 245 244 247 249 252 256 257 255 253 250 246 246 248 252 257 263 270 277 284 288 291 293 294 294 293 293 292 290 289 289 290 291 291
252 250 248 247 245 242 241 241 245 243 240 237 237 240 245 247 246 245 246 249 252 253 253 253 252 251 248 247 248 251 256 262 268 276 283 287 289 292 293 294 293 293 292 292 291 291 291 291 291
252 251 249 247 246 243 243 244 244 243 240 238 237 238 242 246 246 244 245 248 251 252 251 250 250 251 250 250 251 254 258 262 269 277 283 287 290 292 293 294 294 293 294 294 294 293 293 292 291
254 254 252 249 247 246 245 245 242 242 240 238 237 238 240 243 243 243 244 246 249 251 250 248 249 250 251 253 255 258 262 266 272 278 284 288 291 292 294 295 294 294 294 294 295 295 294 292 291
258 256 253 250 247 246 245 244 241 239 238 237 236 237 238 240 241 240 241 244 247 250 250 248 248 250 252 254 258 262 265 270 276 282 287 290 292 292 293 294 294 295 295 295 295 295 294 292 291
256 253 251 248 246 244 243 242 239 235 235 235 235 236 237 238 238 238 239 242 245 249 251 249 248 249 252 256 260 264 269 274 279 284 288 291 292 292 293 293 294 295 295 295 295 295 295 294 293
257 255 252 249 246 244 242 240 237 234 232 232 233 234 235 234 234 235 236 239 242 247 249 250 250 251 254 258 262 266 271 276 282 286 289 291 292 293 293 294 295 296 296 296 296 295 295 295 294
258 256 254 250 246 244 242 239 235 232 231 231 231 232 232 231 231 232 233 236 240 244 247 249 251 253 256 259 262 267 273 278 283 287 290 291 292 294 294 295 296 296 297 297 297 297 297 297 297
259 258 253 249 245 241 239 238 232 230 229 229 229 231 231 228 228 229 231 234 237 241 244 247 250 252 255 259 263 269 274 279 283 286 289 291 293 294 295 295 296 297 298 298 298 298 298 298 299
258 253 249 245 241 238 233 235 229 227 226 226 226 229 229 226 226 226 228 231 234 237 242 245 248 251 255 260 265 270 275 279 283 286 289 291 293 294 295 296 297 298 298 299 299 299 300 300 300
253 247 245 242 238 235 228 231 229 223 224 223 224 227 226 224 224 225 227 229 232 236 241 245 248 252 257 262 266 271 276 280 283 286 289 291 293 295 296 296 297 298 299 299 300 300 301 301 301
249 245 244 240 235 232 224 226 226 219 220 220 223 224 222 223 224 225 226 228 232 236 241 245 249 254 259 263 268 273 277 281 284 287 289 292 294 296 297 297 298 299 299 300 300 301 301 302 302
247 241 238 235 231 227 220 222 220 215 214 215 217 216 216 219 221 222 224 227 232 237 242 247 252 256 261 266 270 274 278 282 285 288 290 293 295 296 297 298 299 299 300 300 301 302 303 303 304
242 236 231 225 225 226 218 216 210 207 207 210 212 211 212 217 219 220 222 227 232 237 243 249 254 259 264 268 272 276 280 283 287 289 291 293 295 297 298 299 300 300 300 301 302 304 304 305 305
238 229 218 218 225 223 213 209 204 203 206 208 208 208 211 215 216 218 221 226 231 238 245 251 257 262 267 271 275 279 282 286 288 290 292 294 296 298 299 299 300 301 302 303 304 305 306 306 306
227 218 214 214 210 204 208 203 198 200 203 203 202 204 208 211 212 214 219 225 232 239 247 254 261 266 270 274 278 282 285 288 289 291 293 295 297 298 299 300 301 303 304 305 306 306 307 307 308
224 216 213 211 200 197 199 195 191 190 190 192 195 199 203 206 209 213 218 226 234 243 251 259 265 269 273 277 281 284 287 289 290 292 295 297 298 300 301 302 304 305 306 307 307 308 308 309 309
Height
5827 5829 5830 5833 5835 5836 5836 5836 5835 5836 5838 5841 5843 5843 5842 5844 5846 5850 5849 5848 5849 5850 5851 5851 5851 5851 5850 5850 5850 5849 5849 5849 5848 5848 5848 5847 5847 5847 5846 5846 5846 5846 5846 5845 5845 5844 5844 5843 5843
5820 5823 5826 5828 5830 5831 5832 5831 5832 5833 5835 5837 5838 5838 5838 5840 5842 5844 5845 5845 5846 5847 5847 5848 5848 5848 5848 5847 5847 5847 5847 5846 5846 5845 5845 5845 5844 5844 5844 5843 5843 5843 5842 5842 5841 5841 5840 5840 5839
5814 5817 5820 5822 5825 5827 5827 5827 5828 5830 5832 5833 5834 5834 5834 5836 5838 5840 5841 5841 5842 5843 5844 5844 5845 5845 5845 5844 5844 5844 5844 5844 5844 5843 5842 5842 5841 5841 5841 5840 5840 5839 5839 5838 5838 5837 5837 5836 5836
5809 5811 5814 5817 5820 5822 5822 5823 5824 5826 5827 5828 5829 5829 5830 5831 5834 5836 5838 5838 5838 5839 5840 5841 5841 5841 5841 5842 5842 5842 5842 5842 5841 5841 5840 5839 5839 5838 5838 5837 5837 5836 5835 5835 5835 5834 5833 5833 5832
5803 5805 5808 5811 5815 5817 5817 5817 5819 5821 5822 5823 5824 5824 5825 5827 5829 5832 5834 5834 5834 5836 5837 5837 5838 5838 5838 5839 5839 5839 5839 5839 5839 5838 5837 5837 5836 5836 5835 5834 5834 5833 5832 5832 5831 5831 5830 5829 5828
5796 5798 5801 5806 5810 5810 5810 5812 5815 5817 5818 5818 5820 5820 5821 5823 5825 5827 5829 5830 5831 5832 5833 5833 5834 5834 5835 5836 5836 5837 5837 5836 5836 5836 5835 5834 5834 5833 5832 5832 5831 5830 5829 5828 5827 5827 5826 5824 5823
5790 5792 5794 5799 5803 5804 5805 5807 5811 5813 5813 5814 5815 5816 5817 5819 5820 5822 5825 5826 5827 5828 5829 5829 5830 5831 5831 5832 5833 5834 5834 5834 5833 5833 5832 5831 5831 5830 5829 5829 5828 5827 5825 5824 5823 5822 5821 5820 5818
5782 5785 5788 5792 5796 5799 5799 5801 5804 5807 5808 5809 5811 5811 5812 5814 5816 5818 5821 5823 5824 5824 5825 5825 5826 5827 5828 5829 5830 5830 5831 5830 5830 5829 5829 5828 5828 5827 5826 5825 5824 5822 5821 5820 5819 5817 5816 5814 5813
5774 5778 5781 5787 5791 5794 5791 5793 5797 5800 5803 5804 5805 5806 5807 5809 5811 5813 5816 5819 5820 5820 5821 5821 5822 5823 5824 5825 5826 5827 5827 5827 5827 5826 5826 5825 5824 5823 5822 5821 5819 5818 5816 5815 5813 5811 5810 5808 5807
5767 5770 5777 5781 5784 5786 5784 5785 5789 5794 5798 5799 5800 5800 5801 5804 5807 5810 5812 5814 5816 5816 5816 5817 5818 5819 5820 5821 5822 5823 5824 5824 5824 5823 5822 5821 5820 5819 5818 5816 5814 5813 5811 5809 5807 5806 5804 5802 5801
5760 5764 5769 5772 5775 5777 5777 5777 5781 5787 5792 5795 5794 5794 5796 5800 5803 5805 5807 5809 5811 5812 5812 5813 5813 5814 5815 5816 5818 5819 5820 5821 5820 5819 5819 5818 5816 5815 5813 5811 5809 5808 5806 5804 5802 5800 5798 5796 5794
5752 5756 5759 5763 5766 5768 5770 5770 5773 5779 5786 5788 5788 5788 5790 5795 5798 5800 5802 5804 5805 5807 5808 5809 5809 5810 5811 5812 5814 5815 5816 5817 5816 5815 5815 5813 5812 5810 5809 5807 5805 5803 5801 5799 5797 5795 5793 5790 5788
5744 5748 5750 5754 5757 5759 5761 5762 5766 5772 5778 5781 5782 5783 5784 5788 5791 5794 5796 5798 5800 5801 5803 5804 5805 5806 5807 5808 5809 5811 5812 5812 5812 5811 5810 5808 5807 5806 5804 5802 5800 5798 5796 5793 5791 5789 5786 5784 5781
5736 5739 5742 5745 5748 5750 5752 5755 5758 5764 5769 5773 5775 5777 5779 5782 5785 5788 5790 5792 5794 5796 5797 5798 5800 5801 5803 5804 5805 5807 5807 5807 5807 5806 5805 5803 5802 5800 5798 5796 5794 5792 5790 5787 5785 5783 5780 5777 5774
5726 5729 5733 5736 5739 5741 5742 5746 5752 5758 5761 5765 5768 5771 5773 5776 5779 5782 5784 5786 5788 5791 5792 5793 5794 5796 5798 5800 5801 5802 5803 5803 5802 5801 5800 5798 5796 5794 5792 5790 5788 5785 5783 5781 5778 5775 5773 5770 5766
5716 5719 5723 5728 5729 5731 5733 5739 5747 5750 5753 5757 5760 5763 5766 5770 5773 5777 5779 5781 5783 5785 5787 5788 5789 5791 5792 5794 5796 5797 5797 5797 5797 5796 5794 5792 5790 5788 5786 5783 5781 5779 5776 5773 5771 5768 5764 5761 5758
5705 5709 5713 5718 5720 5720 5722 5731 5739 5741 5744 5748 5752 5755 5759 5763 5768 5771 5773 5775 5777 5779 5781 5783 5784 5785 5787 5789 5790 5790 5791 5791 5790 5789 5788 5786 5784 5781 5779 5777 5774 5772 5769 5766 5763 5759 5756 5753 5749
5696 5698 5701 5705 5708 5708 5711 5720 5727 5731 5735 5739 5744 5747 5751 5756 5762 5764 5767 5769 5771 5773 5775 5777 5779 5780 5782 5783 5784 5784 5784 5784 5784 5783 5781 5779 5777 5775 5772 5770 5767 5764 5761 5758 5754 5750 5746 5743 5740
5680 5683 5687 5691 5693 5694 5699 5706 5714 5720 5725 5730 5735 5739 5744 5749 5754 5758 5760 5763 5765 5767 5769 5771 5773 5775 5776 5777 5778 5778 5778 5778 5777 5776 5774 5772 5770 5767 5765 5762 5759 5756 5752 5748 5744 5740 5736 5732 5729
5666 5669 5674 5678 5679 5680 5686 5692 5701 5708 5715 5721 5726 5730 5736 5742 5747 5751 5754 5757 5759 5761 5763 5765 5767 5769 5770 5771 5772 5772 5772 5772 5771 5769 5767 5765 5762 5760 5757 5753 5750 5746 5742 5738 5734 5730 5726 5721 5717
5652 5656 5660 5663 5664 5666 5672 5679 5689 5698 5704 5710 5716 5721 5727 5734 5740 5744 5748 5751 5753 5755 5757 5759 5761 5762 5764 5765 5765 5766 5765 5765 5764 5762 5760 5757 5754 5751 5748 5744 5740 5736 5732 5728 5724 5719 5715 5710 5705
5639 5643 5643 5646 5647 5652 5658 5664 5677 5686 5693 5701 5708 5713 5720 5728 5733 5738 5741 5744 5747 5750 5752 5753 5755 5756 5758 5759 5759 5759 5759 5758 5756 5754 5752 5749 5746 5743 5739 5735 5731 5726 5722 5717 5713 5709 5704 5699 5694
5627 5627 5628 5631 5633 5637 5645 5650 5664 5674 5682 5692 5701 5706 5713 5721 5727 5731 5734 5738 5741 5744 5746 5747 5749 5750 5751 5752 5753 5752 5751 5750 5749 5746 5744 5741 5737 5734 5730 5725 5721 5717 5712 5707 5702 5697 5692 5687 5681
5614 5615 5616 5617 5619 5623 5635 5639 5650 5665 5677 5686 5693 5699 5706 5714 5720 5724 5728 5731 5735 5738 5740 5742 5743 5744 5745 5746 5746 5745 5744 5743 5741 5739 5736 5732 5729 5725 5720 5716 5711 5707 5702 5697 5692 5686 5681 5674 5668
5604 5606 5607 5607 5608 5615 5627 5628 5641 5661 5670 5678 5686 5693 5701 5708 5713 5717 5722 5726 5729 5732 5734 5736 5737 5738 5739 5739 5739 5738 5737 5735 5733 5730 5727 5724 5720 5716 5711 5707 5702 5697 5692 5687 5681 5675 5669 5662 5654
5596 5598 5601 5603 5605 5612 5617 5621 5639 5653 5661 5669 5678 5685 5693 5700 5706 5711 5715 5719 5723 5726 5728 5730 5731 5732 5732 5732 5731 5730 5729 5727 5725 5722 5719 5715 5711 5706 5702 5697 5692 5687 5682 5676 5670 5663 5656 5648 5639
5589 5590 5596 5598 5601 5606 5611 5620 5633 5643 5653 5662 5672 5680 5688 5694 5700 5705 5710 5714 5717 5719 5722 5723 5724 5725 5725 5725 5724 5723 5721 5719 5716 5713 5709 5705 5701 5697 5692 5687 5683 5677 5671 5665 5658 5650 5642 5633 5624
5585 5588 5589 5592 5597 5603 5609 5617 5629 5640 5649 5659 5669 5676 5683 5689 5694 5699 5704 5708 5711 5713 5715 5717 5718 5718 5718 5718 5716 5715 5712 5710 5707 5704 5700 5696 5692 5688 5683 5678 5672 5666 5660 5653 5645 5637 5627 5618 5609
5583 5585 5587 5591 5595 5603 5609 5620 5630 5640 5649 5658 5666 5673 5679 5685 5690 5694 5698 5702 5705 5707 5709 5711 5711 5711 5711 5710 5708 5706 5704 5701 5698 5695 5691 5687 5683 5678 5672 5667 5661 5654 5647 5639 5631 5622 5613 5603 5593
5581 5584 5587 5591 5597 5603 5611 5622 5629 5638 5646 5654 5661 5668 5674 5679 5684 5689 5693 5696 5699 5701 5703 5704 5704 5704 5703 5702 5700 5698 5696 5693 5689 5686 5682 5677 5672 5667 5662 5655 5649 5642 5634 5625 5617 5608 5598 5587 5577